Change the Weather History Date:

Thursday, January 9, 2014

  Actual Average Record
Temperature  
Mean Temperature 17 °F -  
Max Temperature 26 °F 15 °F 52 °F (1958)
Min Temperature 8 °F -1 °F -33 °F (1977)
Degree Days  
Heating Degree Days 48    
Moisture  
Dew Point 14 °F    
Average Humidity 82    
Maximum Humidity 93    
Minimum Humidity 74    
Precipitation  
Precipitation 0.00 in - - ()
Sea Level Pressure  
Sea Level Pressure 29.92 in    
Wind  
Wind Speed 18 mph (SE)    
Max Wind Speed 25 mph    
Max Gust Speed 31 mph    
Visibility 10 miles    
Events      
Averages and records for this station are not official NWS values.
T = Trace of Precipitation, MM = Missing Value Source: NWS Daily Summary

Daily Weather History Graph

Daily Weather History Graph

Search for Another Location

Airport or City:

Trip Planner

Search our weather history database for the weather conditions in past years. The results will help you decide how hot, cold, wet, or windy it might be!

Date:

Astronomy

Jan. 09, 2014 Rise Set
Actual Time 8:06 AM CST 5:00 PM CST
Civil Twilight 7:32 AM CST 5:34 PM CST
Nautical Twilight 6:55 AM CST 6:12 PM CST
Astronomical Twilight 6:19 AM CST 6:47 PM CST
Moon 12:35 PM CST (1/9) 2:07 AM CST (1/9)
Length of Visible Light 10h 02m
Length of Day
8h 54m
Waxing Gibbous, 66% of the Moon is Illuminated
Jan 9
Waxing Gibbous
Jan 15
Full
Jan 23
Last Quarter
Jan 30
New
Feb 6
First Quarter

Hourly Weather History & Observations

Time (CST) Temp. Windchill Dew Point Humidity Pressure Visibility Wind Dir Wind Speed Gust Speed Precip Events Conditions
12:14 AM 8.6 °F -10.0 °F 3.2 °F 79% 30.22 in 10.0 mi SE 18.4 mph 23.0 mph N/A   Overcast
12:34 AM 8.6 °F -10.5 °F 3.2 °F 79% 30.22 in 10.0 mi SE 19.6 mph 23.0 mph N/A   Overcast
12:54 AM 8.6 °F -8.9 °F 3.2 °F 79% 30.20 in 10.0 mi SE 16.1 mph - N/A   Overcast
1:14 AM 8.6 °F -11.0 °F 3.2 °F 79% 30.18 in 10.0 mi SE 20.7 mph - N/A   Overcast
1:34 AM 8.6 °F -12.3 °F 5.0 °F 85% 30.16 in 10.0 mi SE 24.2 mph - N/A   Overcast
1:54 AM 10.4 °F -9.5 °F 5.0 °F 79% 30.15 in 10.0 mi SSE 23.0 mph 31.1 mph N/A   Overcast
2:14 AM 10.4 °F -10.3 °F 5.0 °F 79% 30.15 in 10.0 mi SE 25.3 mph - N/A   Overcast
2:34 AM 10.4 °F -9.5 °F 5.0 °F 79% 30.14 in 10.0 mi SE 23.0 mph - N/A   Overcast
2:54 AM 10.4 °F -9.5 °F 6.8 °F 85% 30.13 in 10.0 mi SE 23.0 mph 29.9 mph N/A   Overcast
3:14 AM 10.4 °F -9.1 °F 6.8 °F 85% 30.11 in 10.0 mi SE 21.9 mph - N/A   Overcast
3:34 AM 12.2 °F -7.1 °F 6.8 °F 79% 30.11 in 10.0 mi SE 23.0 mph - N/A   Mostly Cloudy
3:54 AM 12.2 °F -6.7 °F 8.6 °F 85% 30.09 in 10.0 mi SE 21.9 mph 26.5 mph N/A   Mostly Cloudy
4:14 AM 12.2 °F -6.3 °F 8.6 °F 85% 30.08 in 10.0 mi SE 20.7 mph 25.3 mph N/A   Mostly Cloudy
4:34 AM 14.0 °F -3.4 °F 10.4 °F 86% 30.07 in 10.0 mi SSE 19.6 mph 27.6 mph N/A   Overcast
4:55 AM 15.8 °F -1.1 °F 10.4 °F 79% 30.06 in 10.0 mi SSE 19.6 mph 25.3 mph N/A   Overcast
5:14 AM 15.8 °F -1.1 °F 10.4 °F 79% 30.04 in 10.0 mi SSE 19.6 mph - N/A   Overcast
5:34 AM 15.8 °F 0.9 °F 10.4 °F 79% 30.03 in 10.0 mi SSE 15.0 mph - N/A   Overcast
5:54 AM 17.6 °F 2.7 °F 12.2 °F 79% 30.02 in 10.0 mi SSE 16.1 mph - N/A   Overcast
6:14 AM 17.6 °F 2.2 °F 12.2 °F 79% 30.01 in 10.0 mi SSE 17.3 mph 26.5 mph N/A   Mostly Cloudy
6:34 AM 17.6 °F 2.2 °F 12.2 °F 79% 30.00 in 10.0 mi SSE 17.3 mph - N/A   Mostly Cloudy
6:54 AM 17.6 °F 2.2 °F 12.2 °F 79% 29.99 in 10.0 mi SSE 17.3 mph 25.3 mph N/A   Mostly Cloudy
7:14 AM 17.6 °F 1.7 °F 12.2 °F 79% 29.98 in 10.0 mi SSE 18.4 mph 27.6 mph N/A   Mostly Cloudy
7:34 AM 17.6 °F 1.7 °F 12.2 °F 79% 29.97 in 10.0 mi SSE 18.4 mph 24.2 mph N/A   Scattered Clouds
7:54 AM 17.6 °F 1.7 °F 12.2 °F 79% 29.97 in 10.0 mi SE 18.4 mph - N/A   Scattered Clouds
8:14 AM 15.8 °F -0.6 °F 12.2 °F 86% 29.96 in 10.0 mi SE 18.4 mph - N/A   Clear
8:34 AM 15.8 °F -1.1 °F 12.2 °F 86% 29.95 in 10.0 mi SE 19.6 mph - N/A   Clear
8:54 AM 15.8 °F -1.9 °F 12.2 °F 86% 29.95 in 10.0 mi SE 21.9 mph - N/A   Clear
9:14 AM 19.4 °F 3.6 °F 15.8 °F 86% 29.94 in 10.0 mi SSE 19.6 mph 26.5 mph N/A   Clear
9:34 AM 19.4 °F 3.2 °F 15.8 °F 86% 29.93 in 10.0 mi SSE 20.7 mph 26.5 mph N/A   Clear
9:54 AM 21.2 °F 4.9 °F 15.8 °F 80% 29.93 in 10.0 mi SSE 23.0 mph 29.9 mph N/A   Clear
10:14 AM 21.2 °F 5.2 °F 15.8 °F 80% 29.93 in 10.0 mi SSE 21.9 mph 27.6 mph N/A   Clear
10:34 AM 21.2 °F 7.3 °F 15.8 °F 80% 29.94 in 10.0 mi SSE 16.1 mph 24.2 mph N/A   Clear
10:54 AM 21.2 °F 7.3 °F 15.8 °F 80% 29.94 in 10.0 mi SSE 16.1 mph - N/A   Clear
11:14 AM 21.2 °F 6.0 °F 15.8 °F 80% 29.92 in 10.0 mi SSE 19.6 mph 25.3 mph N/A   Clear
11:34 AM 21.2 °F 7.3 °F 15.8 °F 80% 29.91 in 10.0 mi SSE 16.1 mph 21.9 mph N/A   Clear
11:54 AM 23.0 °F 10.6 °F 15.8 °F 74% 29.90 in 10.0 mi SSE 13.8 mph 17.3 mph N/A   Clear
12:14 PM 24.8 °F 11.1 °F 17.6 °F 74% 29.88 in 10.0 mi SSE 18.4 mph - N/A   Clear
12:34 PM 24.8 °F 11.9 °F 17.6 °F 74% 29.87 in 10.0 mi SSE 16.1 mph 25.3 mph N/A   Clear
12:54 PM 24.8 °F 11.5 °F 17.6 °F 74% 29.87 in 10.0 mi SSE 17.3 mph - N/A   Clear
1:14 PM 24.8 °F 11.5 °F 17.6 °F 74% 29.84 in 10.0 mi South 17.3 mph 24.2 mph N/A   Clear
1:34 PM 24.8 °F 13.4 °F 17.6 °F 74% 29.85 in 10.0 mi SSE 12.7 mph - N/A   Clear
1:54 PM 24.8 °F 13.4 °F 17.6 °F 74% 29.84 in 10.0 mi SSE 12.7 mph 18.4 mph N/A   Clear
2:34 PM 26.6 °F 15.7 °F 19.4 °F 74% 29.83 in 10.0 mi SSE 12.7 mph 19.6 mph N/A   Clear
2:54 PM 24.8 °F 13.4 °F 19.4 °F 80% 29.83 in 10.0 mi SSE 12.7 mph 25.3 mph N/A   Clear
3:14 PM 24.8 °F 11.1 °F 19.4 °F 80% 29.82 in 10.0 mi South 18.4 mph 26.5 mph N/A   Clear
3:34 PM 24.8 °F 10.7 °F 19.4 °F 80% 29.82 in 10.0 mi South 19.6 mph - N/A   Scattered Clouds
3:54 PM 24.8 °F 12.9 °F 19.4 °F 80% 29.83 in 10.0 mi SE 13.8 mph 18.4 mph N/A   Scattered Clouds
4:14 PM 24.8 °F 14.6 °F 19.4 °F 80% 29.83 in 10.0 mi SE 10.4 mph 17.3 mph N/A   Clear
5:34 PM 19.4 °F 8.6 °F 15.8 °F 86% 29.82 in 10.0 mi SE 9.2 mph - N/A   Clear
5:54 PM 21.2 °F 9.5 °F 17.6 °F 86% 29.81 in 10.0 mi SE 11.5 mph - N/A   Clear
6:14 PM 21.2 °F 9.5 °F 17.6 °F 86% 29.80 in 10.0 mi SE 11.5 mph - N/A   Clear
6:34 PM 19.4 °F 7.2 °F 17.6 °F 93% 29.80 in 10.0 mi SE 11.5 mph - N/A   Clear
6:54 PM 21.2 °F 8.9 °F 17.6 °F 86% 29.80 in 10.0 mi SE 12.7 mph - N/A   Clear
7:14 PM 19.4 °F 6.0 °F 17.6 °F 93% 29.78 in 10.0 mi SE 13.8 mph - N/A   Clear
7:34 PM 21.2 °F 8.9 °F 17.6 °F 86% 29.78 in 10.0 mi SE 12.7 mph - N/A   Clear
7:54 PM 19.4 °F 9.5 °F 15.8 °F 86% 29.77 in 10.0 mi ESE 8.1 mph - N/A   Clear
8:14 PM 19.4 °F 9.5 °F 15.8 °F 86% 29.77 in 10.0 mi ESE 8.1 mph - N/A   Clear
8:34 PM 19.4 °F 7.2 °F 17.6 °F 93% 29.76 in 10.0 mi SE 11.5 mph - N/A   Clear
8:54 PM 21.2 °F 8.9 °F 17.6 °F 86% 29.75 in 10.0 mi SE 12.7 mph - N/A   Clear
9:14 PM 19.4 °F 6.6 °F 17.6 °F 93% 29.74 in 10.0 mi SE 12.7 mph - N/A   Clear
9:34 PM 21.2 °F 8.9 °F 17.6 °F 86% 29.73 in 10.0 mi SE 12.7 mph - N/A   Clear
9:54 PM 21.2 °F 9.5 °F 17.6 °F 86% 29.73 in 10.0 mi SE 11.5 mph - N/A   Clear
10:14 PM 21.2 °F 7.8 °F 17.6 °F 86% 29.72 in 10.0 mi SE 15.0 mph - N/A   Clear
10:34 PM 19.4 °F 7.9 °F 15.8 °F 86% 29.71 in 10.0 mi ESE 10.4 mph - N/A   Clear
10:54 PM 19.4 °F 7.2 °F 17.6 °F 93% 29.71 in 10.0 mi SE 11.5 mph - N/A   Clear
11:14 PM 19.4 °F 7.9 °F 15.8 °F 86% 29.71 in 10.0 mi SE 10.4 mph - N/A   Clear
11:34 PM 19.4 °F 9.5 °F 15.8 °F 86% 29.71 in 10.0 mi ESE 8.1 mph - N/A   Clear
11:54 PM 17.6 °F 6.4 °F 15.8 °F 93% 29.70 in 10.0 mi ESE 9.2 mph - N/A   Clear